Powrót do katalogu

STARLINK-30946

AktywnyŁącznośćVLEO
NORAD 58450·PAYLOAD·🇺🇸 United States

Wystrzelony Nov 28, 2023 z Cape Canaveral Space Force Station

Loading…

Następne Przeloty (najbliższe 24 godziny)

TLE

ŚwieżeSource: CelesTrak SupGP

Epoka: Sep 15, 2026, 02:07 UTC

1 58450C 23183P   26258.08868056 -.00100240  00000+0 -36302-2 0  2585
2 58450  43.0014  51.9782 0001715 266.6702 344.7718 15.27632766    11

Śledź STARLINK-30946 w czasie rzeczywistym z AllMySat

Download on the App Store